AUA102D EDDM-LOWW

Flight info

Callsign AUA102D
Flight time 0h 38m
Altitude 27000
Route KIRDI4N KIRDI DCT BUWOQ DCT MASUR MASUR3W
Aircraft A20N/M-SDE2E3FGHIJ1RWXY/LB1

Departure

Time 2026-05-06 02:19
Airport Munich Airport (EDDM)

Arrival

Time 2026-05-06 02:57
Airport Vienna International Airport (LOWW)
Time Latitude Longitude Altitude Speed Heading
2026-05-06 02:14 48.36080 11.79483 1460 ft 3 kts 352°
2026-05-06 02:14 48.36120 11.79475 1465 ft 9 kts 352°
2026-05-06 02:14 48.36195 11.79480 1463 ft 14 kts 27°
2026-05-06 02:15 48.36228 11.79655 1468 ft 24 kts 84°
2026-05-06 02:15 48.36249 11.79935 1463 ft 28 kts 84°
2026-05-06 02:15 48.36273 11.80236 1465 ft 30 kts 83°
2026-05-06 02:15 48.36296 11.80544 1467 ft 30 kts 84°
2026-05-06 02:16 48.36320 11.80859 1467 ft 31 kts 84°
2026-05-06 02:16 48.36345 11.81179 1466 ft 31 kts 83°
2026-05-06 02:16 48.36370 11.81503 1466 ft 31 kts 83°
2026-05-06 02:16 48.36392 11.81781 1459 ft 20 kts 83°
2026-05-06 02:17 48.36390 11.81970 1460 ft 13 kts 94°
2026-05-06 02:17 48.36456 11.82009 1466 ft 13 kts 353°
2026-05-06 02:17 48.36552 11.81992 1464 ft 15 kts 353°
2026-05-06 02:17 48.36654 11.81947 1460 ft 16 kts 311°
2026-05-06 02:18 48.36665 11.81812 1459 ft 13 kts 263°
2026-05-06 02:18 48.36652 11.81635 1459 ft 32 kts 261°
2026-05-06 02:18 48.36599 11.80943 1459 ft 98 kts 263°
2026-05-06 02:18 48.36500 11.79645 1458 ft 149 kts 263°
2026-05-06 02:19 48.36373 11.77968 1782 ft 163 kts 263°
2026-05-06 02:19 48.36246 11.76298 2547 ft 156 kts 262°
2026-05-06 02:19 48.36103 11.74664 3101 ft 165 kts 263°
2026-05-06 02:19 48.35834 11.72921 3483 ft 181 kts 248°
2026-05-06 02:20 48.33527 11.70816 4464 ft 226 kts 185°
2026-05-06 02:20 48.31951 11.70827 5385 ft 225 kts 185°
2026-05-06 02:20 48.30384 11.70830 6331 ft 225 kts 185°
2026-05-06 02:21 48.28816 11.71066 7179 ft 231 kts 168°
2026-05-06 02:21 48.27365 11.72150 8051 ft 238 kts 150°
2026-05-06 02:21 48.25998 11.73706 8584 ft 260 kts 137°
2026-05-06 02:21 48.25045 11.76164 9001 ft 290 kts 109°
2026-05-06 02:22 48.24795 11.79253 9698 ft 304 kts 92°
2026-05-06 02:22 48.24855 11.82471 10392 ft 317 kts 90°
2026-05-06 02:22 48.24910 11.85852 10731 ft 339 kts 91°
2026-05-06 02:22 48.24880 11.89540 11196 ft 355 kts 93°
2026-05-06 02:23 48.24780 11.93210 12031 ft 358 kts 94°
2026-05-06 02:23 48.24641 11.96952 12891 ft 361 kts 95°
2026-05-06 02:23 48.24484 12.00729 13729 ft 365 kts 95°
2026-05-06 02:23 48.24317 12.04601 14422 ft 371 kts 95°
2026-05-06 02:24 48.24149 12.08498 15073 ft 377 kts 95°
2026-05-06 02:24 48.23981 12.12393 15741 ft 382 kts 95°
2026-05-06 02:24 48.23807 12.16400 16393 ft 388 kts 96°
2026-05-06 02:24 48.23631 12.20465 17044 ft 394 kts 96°
2026-05-06 02:25 48.23451 12.24602 17707 ft 399 kts 96°
2026-05-06 02:25 48.23266 12.28780 18323 ft 404 kts 96°
2026-05-06 02:25 48.23078 12.33012 18927 ft 408 kts 96°
2026-05-06 02:25 48.22887 12.37273 19524 ft 411 kts 97°
2026-05-06 02:26 48.22693 12.41577 20110 ft 415 kts 97°
2026-05-06 02:26 48.22495 12.45924 20688 ft 419 kts 97°
2026-05-06 02:26 48.22294 12.50306 21265 ft 423 kts 97°
2026-05-06 02:26 48.22089 12.54734 21831 ft 427 kts 98°
2026-05-06 02:27 48.21881 12.59190 22392 ft 431 kts 98°
2026-05-06 02:27 48.21669 12.63692 22944 ft 435 kts 98°
2026-05-06 02:27 48.21459 12.68107 23480 ft 439 kts 98°
2026-05-06 02:27 48.21249 12.72498 23918 ft 442 kts 98°
2026-05-06 02:28 48.21026 12.77115 24368 ft 446 kts 98°
2026-05-06 02:28 48.20800 12.81770 24810 ft 449 kts 98°
2026-05-06 02:28 48.20733 12.86480 25230 ft 458 kts 88°
2026-05-06 02:28 48.21365 12.91210 25647 ft 468 kts 74°
2026-05-06 02:29 48.22719 12.95680 26055 ft 475 kts 59°
2026-05-06 02:29 48.24642 12.99726 26471 ft 478 kts 51°
2026-05-06 02:29 48.26758 13.03610 26798 ft 482 kts 50°
2026-05-06 02:29 48.28922 13.07467 26882 ft 482 kts 49°
2026-05-06 02:30 48.31091 13.11307 26884 ft 482 kts 49°
2026-05-06 02:30 48.33257 13.15138 26884 ft 481 kts 49°
2026-05-06 02:30 48.35431 13.18982 26880 ft 481 kts 49°
2026-05-06 02:30 48.37598 13.22816 26880 ft 481 kts 49°
2026-05-06 02:31 48.39766 13.26655 26879 ft 481 kts 49°
2026-05-06 02:31 48.41933 13.30493 26880 ft 481 kts 49°
2026-05-06 02:31 48.44095 13.34326 26880 ft 480 kts 49°
2026-05-06 02:31 48.46261 13.38167 26880 ft 480 kts 49°
2026-05-06 02:32 48.48423 13.42005 26881 ft 480 kts 49°
2026-05-06 02:32 48.50565 13.45810 26883 ft 480 kts 49°
2026-05-06 02:32 48.52725 13.49647 26880 ft 480 kts 49°
2026-05-06 02:32 48.54884 13.53487 26877 ft 480 kts 49°
2026-05-06 02:33 48.57011 13.57359 26877 ft 479 kts 54°
2026-05-06 02:33 48.58215 13.60156 26877 ft 478 kts 63°
2026-05-06 02:33 48.60128 13.71303 26878 ft 468 kts 93°
2026-05-06 02:34 48.60049 13.76186 26878 ft 466 kts 98°
2026-05-06 02:34 48.59819 13.81067 26878 ft 464 kts 99°
2026-05-06 02:34 48.59565 13.85934 26874 ft 464 kts 99°
2026-05-06 02:34 48.59324 13.90805 26869 ft 464 kts 98°
2026-05-06 02:35 48.59120 13.95250 26871 ft 465 kts 98°
2026-05-06 02:35 48.58910 14.00070 26871 ft 465 kts 98°
2026-05-06 02:35 48.58688 14.04937 26875 ft 464 kts 99°
2026-05-06 02:35 48.58468 14.09817 26820 ft 466 kts 97°
2026-05-06 02:36 48.58304 14.14705 26575 ft 465 kts 97°
2026-05-06 02:36 48.58138 14.19566 26319 ft 462 kts 97°
2026-05-06 02:36 48.57953 14.24387 26062 ft 459 kts 98°
2026-05-06 02:36 48.57752 14.29183 25810 ft 457 kts 98°
2026-05-06 02:37 48.57539 14.33968 25560 ft 455 kts 98°
2026-05-06 02:37 48.57322 14.38724 25299 ft 453 kts 98°
2026-05-06 02:37 48.57104 14.43452 24977 ft 449 kts 98°
2026-05-06 02:37 48.56886 14.48139 24881 ft 448 kts 98°
2026-05-06 02:38 48.56665 14.52810 24870 ft 451 kts 98°
2026-05-06 02:38 48.56439 14.57564 24869 ft 450 kts 98°
2026-05-06 02:38 48.56214 14.62279 24866 ft 450 kts 98°
2026-05-06 02:38 48.55988 14.66995 24869 ft 450 kts 98°
2026-05-06 02:39 48.55762 14.71646 24868 ft 450 kts 98°
2026-05-06 02:39 48.55532 14.76351 24845 ft 449 kts 98°
2026-05-06 02:39 48.55301 14.81031 24283 ft 446 kts 98°
2026-05-06 02:39 48.55067 14.85712 23226 ft 451 kts 98°
2026-05-06 02:40 48.54825 14.90464 21971 ft 453 kts 98°
2026-05-06 02:40 48.54585 14.95188 21026 ft 447 kts 97°
2026-05-06 02:40 48.54348 14.99830 20135 ft 440 kts 97°
2026-05-06 02:40 48.54118 15.04299 19280 ft 434 kts 97°
2026-05-06 02:41 48.53882 15.08827 18425 ft 428 kts 97°
2026-05-06 02:41 48.53649 15.13278 17548 ft 421 kts 97°
2026-05-06 02:41 48.53430 15.17469 16722 ft 413 kts 97°
2026-05-06 02:41 48.53204 15.21740 15983 ft 404 kts 97°
2026-05-06 02:42 48.52988 15.25819 15675 ft 383 kts 97°
2026-05-06 02:42 48.52778 15.29765 15412 ft 377 kts 97°
2026-05-06 02:42 48.52560 15.33771 15086 ft 378 kts 97°
2026-05-06 02:42 48.52348 15.37647 14772 ft 374 kts 97°
2026-05-06 02:43 48.52142 15.41400 14459 ft 376 kts 97°
2026-05-06 02:43 48.51921 15.45427 14134 ft 369 kts 97°
2026-05-06 02:43 48.51709 15.49262 13823 ft 366 kts 97°
2026-05-06 02:43 48.51495 15.53085 13493 ft 366 kts 97°
2026-05-06 02:44 48.51282 15.56860 13246 ft 362 kts 97°
2026-05-06 02:44 48.51072 15.60595 13139 ft 351 kts 97°
2026-05-06 02:44 48.50936 15.62995 13077 ft 342 kts 97°
2026-05-06 02:44 48.50675 15.67633 13075 ft 320 kts 97°
2026-05-06 02:45 48.50551 15.69815 13069 ft 313 kts 97°
2026-05-06 02:45 48.50358 15.73111 13072 ft 317 kts 97°
2026-05-06 02:45 48.50157 15.76475 13083 ft 336 kts 97°
2026-05-06 02:45 48.49862 15.81368 13046 ft 365 kts 97°
2026-05-06 02:46 48.49708 15.83958 12831 ft 368 kts 97°
2026-05-06 02:46 48.49479 15.87820 12339 ft 371 kts 97°
2026-05-06 02:46 48.49250 15.91682 11839 ft 369 kts 96°
2026-05-06 02:46 48.49022 15.95513 11333 ft 365 kts 96°
2026-05-06 02:47 48.48793 15.99305 10847 ft 362 kts 96°
2026-05-06 02:47 48.48564 16.03067 10363 ft 358 kts 96°
2026-05-06 02:47 48.48341 16.06737 10198 ft 345 kts 96°
2026-05-06 02:47 48.48227 16.10289 10065 ft 332 kts 88°
2026-05-06 02:48 48.48459 16.13640 9930 ft 319 kts 82°
2026-05-06 02:48 48.48753 16.16897 9749 ft 310 kts 82°
2026-05-06 02:48 48.49032 16.20099 9430 ft 305 kts 82°
2026-05-06 02:48 48.49302 16.23255 9061 ft 302 kts 82°
2026-05-06 02:49 48.49568 16.26376 8684 ft 299 kts 82°
2026-05-06 02:49 48.49894 16.29455 8320 ft 295 kts 75°
2026-05-06 02:49 48.50457 16.32420 7965 ft 293 kts 72°
2026-05-06 02:49 48.51012 16.35366 7600 ft 291 kts 76°
2026-05-06 02:50 48.51040 16.38388 7235 ft 289 kts 103°
2026-05-06 02:50 48.50204 16.41100 6885 ft 284 kts 131°
2026-05-06 02:50 48.48696 16.42926 6548 ft 276 kts 159°
2026-05-06 02:50 48.46894 16.43761 6231 ft 269 kts 172°
2026-05-06 02:51 48.45057 16.44274 5888 ft 267 kts 174°
2026-05-06 02:51 48.43239 16.44795 5558 ft 266 kts 172°
2026-05-06 02:51 48.41719 16.45292 5280 ft 265 kts 170°
2026-05-06 02:51 48.39933 16.45976 5041 ft 268 kts 168°
2026-05-06 02:52 48.38098 16.46740 4986 ft 271 kts 167°
2026-05-06 02:52 48.36332 16.47493 4980 ft 255 kts 167°
2026-05-06 02:52 48.34721 16.48177 4985 ft 234 kts 168°
2026-05-06 02:52 48.33193 16.48823 4984 ft 229 kts 168°
2026-05-06 02:53 48.31634 16.49480 4722 ft 234 kts 167°
2026-05-06 02:53 48.30071 16.50145 4342 ft 232 kts 167°
2026-05-06 02:53 48.28537 16.50796 4000 ft 226 kts 167°
2026-05-06 02:53 48.27027 16.51435 3692 ft 226 kts 167°
2026-05-06 02:54 48.25507 16.52080 3398 ft 225 kts 167°
2026-05-06 02:54 48.24004 16.52717 3099 ft 225 kts 167°
2026-05-06 02:54 48.22504 16.53354 2786 ft 222 kts 168°
2026-05-06 02:54 48.21042 16.53975 2552 ft 210 kts 168°
2026-05-06 02:55 48.19689 16.54550 2243 ft 193 kts 169°
2026-05-06 02:55 48.18447 16.55077 1976 ft 176 kts 169°
2026-05-06 02:55 48.17322 16.55555 1749 ft 160 kts 170°
2026-05-06 02:55 48.16265 16.55999 1537 ft 156 kts 170°
2026-05-06 02:56 48.15242 16.56434 1318 ft 149 kts 169°
2026-05-06 02:56 48.14241 16.56858 1101 ft 150 kts 167°
2026-05-06 02:56 48.13257 16.57281 872 ft 149 kts 168°
2026-05-06 02:56 48.12257 16.57708 702 ft 149 kts 168°
2026-05-06 02:57 48.11283 16.58103 610 ft 146 kts 169°
2026-05-06 02:57 48.10489 16.58441 619 ft 66 kts 164°
2026-05-06 02:57 48.10182 16.58419 614 ft 24 kts 192°
2026-05-06 02:57 48.10152 16.58321 616 ft 12 kts 321°
2026-05-06 02:58 48.10234 16.58277 611 ft 14 kts 343°
2026-05-06 02:58 48.10332 16.58234 611 ft 16 kts 344°
2026-05-06 02:58 48.10446 16.58186 611 ft 18 kts 345°
2026-05-06 02:58 48.10571 16.58134 616 ft 19 kts 345°
2026-05-06 02:59 48.10707 16.58076 615 ft 21 kts 344°
2026-05-06 02:59 48.10851 16.58014 615 ft 23 kts 342°
2026-05-06 02:59 48.10982 16.57958 614 ft 24 kts 344°
2026-05-06 02:59 48.11146 16.57890 610 ft 25 kts 343°
2026-05-06 03:00 48.11316 16.57819 613 ft 26 kts 344°
2026-05-06 03:00 48.11497 16.57742 616 ft 27 kts 345°
2026-05-06 03:00 48.11668 16.57670 612 ft 24 kts 344°
2026-05-06 03:00 48.11807 16.57610 612 ft 14 kts 337°
2026-05-06 03:01 48.11826 16.57500 620 ft 12 kts 255°
2026-05-06 03:01 48.11809 16.57369 613 ft 13 kts 278°
2026-05-06 03:01 48.11843 16.57252 613 ft 10 kts 296°
2026-05-06 03:01 48.11854 16.57161 609 ft 8 kts 274°
2026-05-06 03:02 48.11871 16.57092 617 ft 6 kts 294°
2026-05-06 03:02 48.11881 16.57049 615 ft 4 kts 276°
2026-05-06 03:02 48.11874 16.57028 621 ft 2 kts 235°
2026-05-06 03:02 48.11849 16.57002 613 ft 4 kts 207°
2026-05-06 03:03 48.11829 16.56987 619 ft 0 kts 206°